Hourly Data Report for November 04, 2004

SHERBROOKE A
QUEBEC

45°26'00.000" N
71°41'00.000" W
241.40 m
7028124
71610
YSC

Download Data

Hourly Data (November 2004)
Hourly Data Report for November 4, 2004
TIME
LST
Temp Definition
°C
Dew Point Definition
°C
Rel Hum Definition
%
Precip. Amount Definition
mm

Wind Dir Definition
10's deg

Wind Spd Definition
km/h
Visibility Definition
km
Stn Press Definition
kPa
Hmdx Definition


Wind Chill Definition


Weather Definition


00:00 -1.6 -5.3 76   27 7 15.0 99.32   -4  
01:00 -2.0 -5.3 78   28 7 15.0 99.28   -5  
02:00 -2.3 -5.1 81   26 4 15.0 99.30   -4  
03:00 -2.1 -5.4 78   21 4 15.0 99.30   -4  
04:00 -3.2 -5.8 82     0 15.0 99.25      
05:00 -4.3 -6.5 85     0 15.0 99.13      
06:00 -4.8 -6.6 87   14 4 15.0 99.06   -7  
07:00 -5.0 -6.6 89   25 4 15.0 99.08   -7  
08:00 -1.3 -4.0 82   17 6 24.1 99.07   -4 Mainly Clear
09:00 0.2 -3.9 74   24 7 24.1 99.00     Clear
10:00 2.0 -4.7 61     0 24.1 98.88     Mainly Clear
11:00 3.4 -3.9 59   7 9 24.1 98.71     Mainly Clear
12:00 4.2 -3.8 56   12 6 24.1 98.52     Mainly Clear
13:00 5.1 -3.9 52   16 11 24.1 98.44     Mostly Cloudy
14:00 5.7 -3.7 51   9 9 24.1 98.18     Mostly Cloudy
15:00 5.7 -2.8 54   7 6 24.1 98.02     Cloudy
16:00 4.6 -2.5 60   7 9 24.1 97.83     Cloudy
17:00 4.5 -2.8 59   9 11 24.1 97.62     Cloudy
18:00 6.5 -5.2 43   12 19 15.0 97.40     Rain
19:00 6.1 -5.5 43   18 6 15.0 97.44      
20:00 4.0 -1.4 68   21 20 15.0 97.34     Rain
21:00 1.1 -0.4 90   12 13 4.8 97.13      
22:00 0.5 -0.5 93   10 11 2.3 96.83      
23:00 1.1 0.0 92   10 9 15.0 96.57     Rain

Notes on Data Quality.

Legend

  • E = Estimated
  • M = Missing
  • NA = Not Available*
  • [empty] = Indicates an unobserved value
Date modified: